Fairbanks Eiels, AK

4:18 AM AKDT on July 29, 2017 (GMT -0800)
Eielson Air Force Base

Weather History for PAEI - December, 2012

Change the Weather History Date:

Wednesday, December 5, 2012

  Actual Average Record
Temperature  
Mean Temperature -24 °F -  
Max Temperature -18 °F 2 °F 37 °F (1969)
Min Temperature -30 °F -13 °F -53 °F (1975)
Degree Days  
Heating Degree Days 89    
Moisture  
Dew Point -29 °F    
Average Humidity 90    
Maximum Humidity 100    
Minimum Humidity 69    
Precipitation  
Precipitation 0.00 in - - ()
Sea Level Pressure  
Sea Level Pressure 29.93 in    
Wind  
Wind Speed 0 mph (SSE)    
Max Wind Speed 5 mph    
Max Gust Speed -    
Visibility 7 miles    
Events Snow    
Averages and records for this station are not official NWS values.
T = Trace of Precipitation, MM = Missing Value Source: NWS Daily Summary

Daily Weather History Graph

Daily Weather History Graph

Search for Another Location

Airport or City:

Trip Planner

Search our weather history database for the weather conditions in past years. The results will help you decide how hot, cold, wet, or windy it might be!

Date:

Astronomy

Dec. 05, 2012 Rise Set
Actual Time 10:26 AM AKST 2:51 PM AKST
Civil Twilight 9:09 AM AKST 4:08 PM AKST
Nautical Twilight 8:00 AM AKST 5:17 PM AKST
Astronomical Twilight 7:00 AM AKST 6:17 PM AKST
Moon No Moon Rise 12:48 PM AKST (12/5)
Length of Visible Light 6h 59m
Length of Day
4h 24m
Waning Gibbous, 58% of the Moon is Illuminated
Dec 5
Waning Gibbous
Dec 6
Last Quarter
Dec 12
New
Dec 19
First Quarter
Dec 28
Full

Hourly Weather History & Observations

Time (AKST) Temp. Windchill Dew Point Humidity Pressure Visibility Wind Dir Wind Speed Gust Speed Precip Events Conditions
12:21 AM -29.2 °F - -29.2 °F 100% 29.91 in 6.0 mi Calm Calm - N/A   Overcast
12:55 AM -30.3 °F - - N/A% 29.91 in 10.0 mi Calm Calm - N/A   Scattered Clouds
1:21 AM -29.2 °F - -29.2 °F 100% 29.92 in 8.0 mi Calm Calm - N/A   Mostly Cloudy
1:22 AM -29.2 °F - -29.2 °F 100% 29.91 in 8.0 mi Calm Calm - N/A   Mostly Cloudy
1:39 AM -29.2 °F - -29.2 °F 100% 29.92 in 3.0 mi Calm Calm - N/A   Mostly Cloudy
1:40 AM -29.2 °F - -29.2 °F 100% 29.92 in 2.5 mi Calm Calm - N/A   Mostly Cloudy
1:41 AM -29.2 °F - -29.2 °F 100% 29.92 in 2.0 mi Calm Calm - N/A   Mostly Cloudy
1:42 AM -29.2 °F - -29.2 °F 100% 29.92 in 2.0 mi Calm Calm - N/A   Mostly Cloudy
1:43 AM -29.2 °F - -29.2 °F 100% 29.91 in 1.8 mi Calm Calm - N/A   Mostly Cloudy
1:45 AM -29.2 °F - -29.2 °F 100% 29.91 in 1.5 mi Calm Calm - N/A   Mostly Cloudy
1:48 AM -29.2 °F - -29.2 °F 100% 29.91 in 1.5 mi Calm Calm - N/A   Mostly Cloudy
1:51 AM -29.2 °F - -29.2 °F 100% 29.91 in 2.0 mi Calm Calm - N/A   Mostly Cloudy
1:52 AM -29.2 °F - -29.2 °F 100% 29.91 in 2.5 mi Calm Calm - N/A   Mostly Cloudy
1:54 AM -29.2 °F -41.2 °F -29.2 °F 100% 29.91 in 3.0 mi South 3.5 mph - N/A   Mostly Cloudy
1:55 AM -29.7 °F -41.8 °F -29.9 °F 99% 29.91 in 4.0 mi South 3.5 mph - N/A   Mostly Cloudy
2:07 AM -29.2 °F -44.0 °F -29.2 °F 100% 29.91 in 10.0 mi SSE 4.6 mph - N/A   Overcast
2:32 AM -29.2 °F - -29.2 °F 100% 29.91 in 10.0 mi Calm Calm - N/A   Mostly Cloudy
2:55 AM -29.7 °F - -30.1 °F 98% 29.92 in 10.0 mi Calm Calm - N/A   Mostly Cloudy
3:55 AM -29.4 °F - -29.9 °F 97% 29.92 in 10.0 mi Calm Calm - 0.00 in Snow Light Snow
5:52 AM -29.2 °F - -29.2 °F 100% 29.92 in 10.0 mi Calm Calm - N/A   Mostly Cloudy
5:55 AM -29.7 °F - -29.9 °F 99% 29.92 in 10.0 mi Calm Calm - 0.00 in   Scattered Clouds
6:03 AM -29.2 °F - -29.2 °F 100% 29.92 in 10.0 mi Calm Calm - N/A   Scattered Clouds
6:08 AM -29.2 °F - -29.2 °F 100% 29.91 in 10.0 mi Calm Calm - N/A   Mostly Cloudy
6:22 AM -29.2 °F - -29.2 °F 100% 29.91 in 8.0 mi Calm Calm - N/A   Mostly Cloudy
6:27 AM -29.2 °F - -29.2 °F 100% 29.92 in 7.0 mi Calm Calm - N/A   Overcast
6:34 AM -29.2 °F - -29.2 °F 100% 29.92 in 9.0 mi Calm Calm - N/A   Overcast
6:55 AM -29.4 °F - -29.9 °F 97% 29.92 in 10.0 mi Calm Calm - N/A   Overcast
6:57 AM -29.2 °F - -29.2 °F 100% 29.92 in 10.0 mi Calm Calm - N/A   Overcast
7:08 AM -29.2 °F - -29.2 °F 100% 29.92 in 10.0 mi Calm Calm - N/A   Partly Cloudy
7:26 AM -27.4 °F - -29.2 °F 91% 29.92 in 4.0 mi Calm Calm - N/A   Partly Cloudy
7:55 AM -27.4 °F - -29.9 °F 88% 29.92 in 10.0 mi Calm Calm - 0.00 in Snow Light Snow
8:55 AM -28.1 °F - -29.9 °F 91% 29.92 in 10.0 mi Calm Calm - 0.00 in   Scattered Clouds
9:48 AM -29.2 °F - -29.2 °F 100% 29.93 in 3.0 mi Calm Calm - N/A   Scattered Clouds
9:55 AM -29.4 °F - -29.9 °F 97% 29.93 in 2.0 mi Calm Calm - N/A   Scattered Clouds
10:55 AM -30.8 °F - - N/A% 29.93 in 5.0 mi Calm Calm - N/A   Scattered Clouds
11:55 AM -28.7 °F - -29.9 °F 94% 29.94 in 10.0 mi Calm Calm - N/A   Scattered Clouds
12:55 PM -26.9 °F - -29.9 °F 85% 29.94 in 10.0 mi Calm Calm - 0.00 in   Scattered Clouds
1:55 PM -26.1 °F - -29.9 °F 82% 29.94 in 10.0 mi Calm Calm - N/A   Scattered Clouds
2:55 PM -24.5 °F - -29.9 °F 76% 29.95 in 10.0 mi Calm Calm - N/A   Scattered Clouds
3:14 PM -23.8 °F - -29.2 °F 76% 29.95 in 2.0 mi Calm Calm - N/A   Partly Cloudy
3:22 PM -23.8 °F - -29.2 °F 76% 29.95 in - Calm Calm - N/A   Haze
3:31 PM -23.8 °F - -29.2 °F 76% 29.95 in 3.0 mi Calm Calm - N/A   Haze
3:46 PM -23.8 °F - -29.2 °F 76% 29.96 in 6.0 mi Calm Calm - N/A   Haze
3:55 PM -23.6 °F - -29.9 °F 72% 29.95 in 9.0 mi Calm Calm - 0.00 in   Partly Cloudy
4:21 PM -23.8 °F - -29.2 °F 76% 29.95 in 3.0 mi Calm Calm - N/A   Haze
4:42 PM -23.8 °F -37.7 °F -29.2 °F 76% 29.95 in 5.0 mi North 4.6 mph - N/A   Haze
4:55 PM -23.3 °F - -29.9 °F 71% 29.95 in 6.0 mi Calm Calm - 0.00 in   Haze
5:55 PM -22.5 °F - -29.4 °F 70% 29.95 in 10.0 mi Calm Calm - N/A   Scattered Clouds
6:55 PM -22.2 °F - -29.0 °F 70% 29.95 in 10.0 mi Calm Calm - 0.00 in   Mostly Cloudy
7:48 PM -20.2 °F - -27.4 °F 69% 29.95 in 6.0 mi Calm Calm - N/A Snow Light Snow
7:55 PM -20.4 °F - -27.0 °F 71% 29.95 in 6.0 mi Calm Calm - 0.00 in Snow Light Snow
8:05 PM -20.2 °F - -25.6 °F 76% 29.95 in 7.0 mi Calm Calm - N/A   Overcast
8:55 PM -19.3 °F - -25.8 °F 72% 29.96 in 10.0 mi Calm Calm - 0.00 in   Mostly Cloudy
9:55 PM -18.4 °F - -24.9 °F 72% 29.96 in 10.0 mi Calm Calm - N/A   Partly Cloudy
10:55 PM -19.3 °F - -25.8 °F 72% 29.96 in 10.0 mi Calm Calm - N/A   Clear
11:55 PM -20.9 °F - -27.4 °F 72% 29.97 in 10.0 mi Calm Calm - N/A   Clear